Wind_Speed
21 21 20 19 18 18 17 17 17 17 18 18 19 19 20 21 22 23 24 26 27 29 30 31 32 32 32 32 32 33 33 33 33 33 33 32 32 31 31 30 29 28 27
23 23 22 21 21 20 20 19 20 20 20 21 21 22 23 23 24 25 26 28 29 30 32 33 33 33 33 33 34 34 34 34 34 34 34 33 33 32 31 30 29 28 27
25 25 24 24 23 23 23 22 22 23 23 23 24 25 26 26 27 28 29 30 31 32 33 34 34 35 35 35 34 35 35 35 35 35 34 34 33 32 32 31 29 28 27
27 26 26 26 26 26 26 26 26 26 26 26 27 28 28 29 30 30 32 33 33 34 35 35 36 36 36 35 35 35 36 35 36 36 35 34 33 33 32 31 30 28 27
29 29 28 28 28 28 28 28 29 29 29 29 30 30 31 31 32 33 34 35 36 36 37 37 37 37 36 36 36 36 35 36 36 36 36 35 34 33 33 32 30 28 27
31 31 31 31 31 31 31 31 32 32 32 32 32 33 33 34 35 36 37 38 38 39 39 39 38 38 38 37 36 36 36 36 37 36 36 35 34 34 33 32 30 28 27
33 33 33 33 33 34 34 35 35 35 35 35 35 35 36 37 38 39 40 40 41 41 40 40 40 39 38 38 37 36 37 37 37 37 36 35 34 34 33 32 31 29 28
35 35 36 36 36 36 37 37 38 38 38 39 39 39 39 39 41 41 42 42 42 42 41 41 40 40 39 38 37 37 38 38 38 37 36 35 34 33 32 32 31 30 29
37 37 38 38 39 39 39 40 41 41 41 41 42 43 42 42 42 41 42 43 43 43 41 40 40 39 39 38 38 38 39 38 38 37 35 35 34 33 32 31 30 30 29
40 40 40 41 41 42 42 43 43 43 43 43 44 44 45 45 45 44 43 43 43 43 42 40 40 39 38 38 38 38 38 38 38 36 35 34 33 32 31 30 29 29 28
40 41 41 42 42 43 44 44 45 45 45 45 45 46 47 47 47 47 45 44 44 43 42 41 40 39 38 38 38 39 39 38 37 36 35 33 32 31 30 29 28 28 27
43 43 42 43 44 45 45 45 46 46 47 47 48 48 48 48 48 48 47 46 45 44 42 41 41 40 40 39 39 39 39 37 36 35 33 32 31 30 29 28 27 27 27
44 45 45 46 46 47 47 48 48 49 49 49 49 49 48 48 48 48 47 46 45 44 43 42 41 41 40 40 40 40 39 37 35 33 32 31 30 29 28 27 27 26 26
47 47 48 49 49 50 50 50 50 50 50 50 49 49 49 48 48 47 46 45 44 44 44 43 42 42 42 41 41 40 38 36 34 32 31 30 29 28 27 27 26 26 26
49 49 50 50 51 51 51 51 50 50 49 49 49 49 49 48 47 47 46 46 45 44 44 43 43 43 42 41 41 39 37 34 33 32 30 29 28 27 27 26 26 25 25
49 49 49 49 49 50 50 50 50 50 49 49 49 49 48 47 48 47 47 46 45 45 44 43 43 43 42 41 39 37 35 33 32 31 30 28 27 27 26 26 25 25 25
49 49 49 49 49 49 50 50 50 50 50 49 49 49 48 48 47 46 46 46 45 45 44 43 43 42 40 39 37 35 33 32 31 30 29 28 27 26 26 25 25 24 24
48 48 48 48 48 49 49 49 49 49 49 49 49 48 48 47 46 46 45 45 45 44 43 42 41 40 38 37 35 33 32 31 30 30 28 27 27 26 26 25 25 25 24
48 47 48 48 48 48 49 49 48 48 48 48 47 47 46 46 45 44 44 43 43 42 41 40 39 37 36 34 33 31 31 31 30 29 28 27 26 26 26 26 25 25 25
47 47 47 47 47 47 47 47 47 46 46 45 45 45 44 43 43 43 42 42 41 40 39 38 37 35 34 32 31 31 30 30 28 28 27 27 26 26 26 26 26 26 26
45 45 45 46 46 46 46 45 45 44 43 42 42 42 41 41 41 40 40 40 39 38 37 36 35 33 32 31 31 30 29 28 28 28 28 27 27 27 27 27 27 27 27
43 43 44 44 44 44 44 43 42 42 41 40 40 40 40 39 39 38 38 38 37 36 35 34 33 32 31 30 30 29 29 28 28 28 28 28 28 28 28 28 28 28 29
42 42 42 42 42 42 42 41 40 39 39 39 39 39 39 38 37 37 36 36 35 34 33 32 32 31 31 30 29 29 29 29 29 29 29 29 29 30 30 30 30 30 30
42 42 42 41 40 40 39 39 39 38 38 38 38 37 37 36 36 36 35 34 33 32 32 32 31 31 30 30 29 29 29 29 30 30 30 30 30 31 31 31 31 31 32
40 40 40 39 39 39 39 38 38 37 37 36 36 36 36 35 35 34 33 33 32 32 32 31 31 31 30 30 29 29 30 30 30 31 31 31 31 31 32 33 33 33 34
39 39 39 39 38 38 37 37 36 36 35 35 34 34 34 33 33 32 32 31 31 30 30 30 30 30 30 30 30 30 31 31 31 31 31 32 32 33 33 34 34 34 35
Wind_Direction
250 252 255 257 260 263 267 270 274 278 281 285 288 291 295 298 301 304 307 309 311 313 314 315 316 317 316 316 316 316 316 316 315 314 313 312 310 308 307 304 302 300 298
251 254 256 258 261 264 267 271 275 279 281 284 287 290 292 295 298 301 303 306 308 310 311 312 313 314 314 314 314 314 314 314 313 312 311 310 308 306 305 303 301 298 296
251 254 257 259 262 265 269 272 275 278 280 283 286 289 291 293 296 298 301 304 306 307 309 310 310 311 311 311 311 311 311 311 311 311 310 308 306 304 303 302 300 298 295
253 255 258 260 263 266 269 272 275 278 281 283 285 288 290 292 294 297 300 302 303 304 306 307 308 308 308 308 309 309 309 309 309 309 308 306 304 302 302 301 299 297 294
256 257 259 261 263 266 269 272 275 278 280 281 284 287 289 291 294 296 299 300 301 303 304 305 306 305 306 306 307 307 307 307 307 307 306 305 303 301 301 300 298 295 293
258 259 261 263 265 267 270 272 275 277 279 281 284 286 289 291 293 295 297 298 300 301 302 303 303 303 304 304 305 305 305 305 305 305 304 302 301 300 300 299 297 295 293
260 262 264 265 267 269 271 273 275 277 279 280 283 285 288 290 291 293 295 296 298 300 301 301 302 302 303 303 303 303 304 304 304 303 302 300 299 298 298 297 295 294 292
261 263 265 266 269 271 272 274 275 277 279 280 282 284 286 289 291 292 294 295 297 298 299 300 300 300 300 301 301 301 302 302 302 301 300 299 297 297 296 295 294 293 292
262 263 265 268 270 272 273 274 275 277 279 281 283 284 285 287 288 290 291 293 295 296 297 297 297 297 298 299 299 300 301 301 300 299 298 297 296 295 294 293 292 291 290
263 264 266 268 270 272 274 275 276 278 279 281 283 285 286 288 289 289 290 291 293 294 295 295 295 296 297 297 298 298 299 299 297 296 296 295 295 294 293 292 291 290 288
266 266 267 269 271 273 274 276 277 278 280 282 284 286 287 288 288 289 290 291 292 293 294 294 294 295 295 296 297 297 297 296 295 295 295 294 293 292 291 290 290 288 287
268 269 270 272 272 274 275 277 278 279 281 282 284 285 287 287 288 288 289 290 291 292 292 292 293 293 294 295 295 295 295 294 294 293 293 292 291 290 289 288 288 287 287
268 270 270 272 273 275 276 277 279 280 281 282 283 284 285 286 287 287 287 288 289 290 290 291 291 292 293 294 294 294 293 292 292 291 291 290 290 289 288 287 287 286 285
269 270 271 273 274 275 276 277 278 279 281 282 283 284 284 284 285 285 286 286 287 287 288 289 290 291 292 292 292 292 291 290 289 290 289 289 288 287 286 286 286 285 284
271 272 273 273 274 275 276 277 278 279 280 281 282 283 283 283 284 284 284 285 285 286 286 287 288 289 290 290 290 289 288 287 287 288 288 287 286 286 286 286 286 285 284
270 271 273 273 273 274 276 277 278 279 280 281 282 282 282 282 283 284 283 283 284 284 285 286 286 287 288 288 287 286 285 285 285 286 285 285 285 286 286 286 286 285 284
270 271 272 273 274 275 276 277 278 279 280 281 281 281 282 282 282 282 282 282 282 282 283 284 285 286 286 285 285 284 282 283 283 283 283 283 284 284 285 286 286 285 284
270 272 273 274 276 276 277 278 279 280 280 281 281 281 281 281 281 281 281 281 281 282 282 283 283 283 283 282 281 281 281 281 282 282 282 283 284 284 285 285 285 284 284
270 271 273 274 276 277 278 278 280 280 281 281 281 281 281 281 280 279 280 280 280 280 281 281 282 281 280 279 279 279 279 280 281 280 281 282 283 284 285 285 285 285 284
269 271 273 274 276 278 279 279 279 280 280 280 280 280 279 279 278 278 278 278 279 279 280 280 278 277 276 276 277 277 278 279 279 280 281 282 282 283 284 284 284 284 284
269 271 273 274 276 277 278 278 278 279 279 279 279 279 279 278 278 278 278 278 278 278 278 276 275 274 274 275 275 276 277 277 278 280 281 281 282 282 283 284 284 283 283
269 271 273 274 275 276 277 278 278 278 278 278 278 278 278 278 278 277 277 276 276 276 275 274 273 273 273 274 274 275 276 277 279 280 281 281 281 282 282 283 283 283 283
271 272 273 274 275 276 277 277 278 278 278 278 278 278 278 278 277 276 276 276 275 274 273 272 272 272 272 273 274 275 276 277 279 280 281 282 282 282 282 283 283 283 283
270 272 273 274 275 276 276 277 278 278 278 278 278 278 277 276 276 275 275 274 273 272 271 271 271 271 272 272 274 275 276 278 280 281 282 282 282 283 283 283 283 282 282
271 272 273 274 274 275 275 276 277 278 278 277 277 277 276 276 275 274 273 273 272 272 271 271 270 271 272 274 275 276 278 279 280 282 282 283 283 283 283 283 282 282 282
270 271 272 273 274 275 275 276 276 277 277 277 277 276 276 276 275 275 274 273 273 272 271 271 271 273 274 275 277 277 278 280 281 282 283 284 284 284 284 283 283 283 283
Height
5865 5865 5866 5866 5866 5866 5866 5865 5865 5865 5864 5863 5862 5861 5859 5858 5856 5854 5852 5850 5847 5845 5842 5839 5836 5833 5829 5826 5822 5819 5815 5811 5808 5804 5801 5797 5794 5791 5788 5785 5783 5780 5778
5860 5861 5862 5862 5862 5862 5862 5861 5861 5860 5860 5859 5858 5856 5855 5854 5852 5850 5848 5845 5843 5840 5837 5834 5831 5827 5824 5820 5817 5813 5809 5805 5802 5798 5795 5791 5788 5785 5782 5779 5777 5775 5773
5855 5856 5857 5857 5857 5857 5857 5857 5856 5856 5855 5854 5853 5852 5850 5848 5847 5845 5842 5840 5837 5834 5831 5828 5825 5821 5818 5814 5811 5807 5803 5799 5796 5792 5789 5785 5782 5779 5776 5773 5771 5769 5767
5850 5851 5851 5852 5852 5852 5852 5852 5851 5851 5850 5849 5848 5846 5844 5843 5841 5838 5836 5834 5831 5828 5825 5822 5819 5815 5811 5808 5804 5800 5796 5793 5789 5785 5782 5779 5776 5773 5770 5767 5765 5762 5761
5844 5844 5845 5846 5846 5846 5846 5846 5846 5845 5844 5843 5842 5840 5838 5836 5834 5831 5829 5826 5824 5821 5818 5815 5812 5808 5805 5801 5797 5794 5790 5786 5782 5779 5775 5772 5769 5766 5763 5760 5758 5756 5754
5837 5838 5838 5839 5839 5839 5839 5839 5839 5838 5837 5836 5835 5833 5831 5829 5827 5824 5822 5819 5816 5813 5811 5807 5804 5801 5797 5794 5790 5787 5783 5779 5775 5772 5768 5765 5762 5759 5756 5753 5751 5749 5748
5830 5831 5831 5832 5832 5832 5832 5832 5831 5831 5829 5828 5828 5826 5824 5822 5819 5816 5814 5811 5808 5805 5802 5799 5796 5792 5789 5786 5782 5779 5775 5772 5768 5765 5761 5758 5755 5752 5749 5746 5744 5742 5741
5822 5823 5824 5824 5824 5824 5824 5823 5823 5822 5821 5820 5819 5818 5817 5815 5811 5808 5805 5802 5799 5796 5793 5790 5787 5784 5781 5778 5774 5771 5768 5764 5761 5757 5754 5751 5748 5745 5743 5740 5738 5735 5734
5813 5814 5815 5815 5815 5815 5815 5814 5814 5814 5813 5811 5809 5808 5807 5806 5803 5800 5796 5793 5790 5788 5785 5782 5779 5776 5773 5770 5766 5763 5759 5756 5753 5749 5746 5743 5740 5738 5735 5733 5731 5729 5727
5804 5805 5805 5806 5806 5806 5805 5805 5804 5804 5803 5801 5799 5798 5796 5794 5792 5791 5788 5784 5781 5778 5776 5773 5770 5767 5764 5761 5758 5754 5751 5748 5744 5741 5738 5735 5732 5730 5728 5725 5723 5721 5720
5794 5795 5795 5796 5796 5796 5796 5795 5794 5794 5792 5791 5789 5788 5786 5783 5781 5779 5778 5774 5771 5769 5766 5763 5760 5757 5754 5752 5749 5745 5742 5739 5736 5733 5730 5727 5725 5722 5720 5718 5716 5714 5713
5785 5785 5786 5786 5786 5786 5786 5785 5784 5783 5782 5780 5779 5777 5775 5773 5770 5768 5766 5764 5761 5758 5756 5753 5750 5747 5745 5742 5739 5736 5733 5730 5727 5724 5722 5719 5717 5715 5713 5711 5709 5707 5706
5774 5775 5776 5776 5776 5775 5775 5774 5773 5772 5771 5769 5767 5766 5764 5762 5760 5757 5755 5753 5750 5748 5745 5743 5740 5737 5735 5732 5729 5726 5723 5721 5718 5716 5713 5711 5709 5707 5705 5704 5702 5700 5699
5764 5764 5764 5764 5764 5764 5763 5763 5762 5761 5759 5758 5756 5754 5752 5750 5748 5746 5744 5742 5740 5738 5735 5733 5730 5727 5725 5722 5719 5717 5714 5711 5709 5707 5705 5703 5701 5699 5698 5696 5695 5693 5692
5753 5753 5753 5753 5752 5752 5752 5751 5750 5749 5747 5746 5744 5743 5741 5739 5737 5735 5733 5731 5729 5727 5725 5722 5720 5717 5714 5712 5709 5707 5705 5702 5701 5699 5697 5695 5693 5692 5690 5689 5687 5686 5685
5741 5741 5741 5741 5740 5740 5739 5739 5738 5737 5736 5734 5732 5731 5729 5727 5725 5723 5721 5719 5717 5715 5714 5711 5709 5706 5704 5702 5699 5697 5695 5694 5692 5690 5689 5687 5686 5684 5683 5681 5680 5678 5677
5730 5730 5729 5729 5728 5728 5727 5726 5725 5725 5723 5722 5720 5719 5717 5715 5713 5712 5710 5708 5706 5704 5702 5700 5698 5695 5693 5692 5690 5688 5686 5685 5684 5682 5681 5679 5678 5676 5675 5674 5672 5671 5670
5718 5718 5718 5717 5717 5716 5715 5715 5713 5712 5711 5709 5708 5706 5705 5703 5701 5700 5698 5696 5694 5692 5691 5689 5687 5685 5683 5682 5680 5679 5678 5676 5675 5674 5672 5671 5670 5668 5667 5666 5665 5664 5662
5706 5706 5706 5705 5705 5704 5703 5702 5701 5700 5699 5697 5696 5694 5693 5691 5690 5688 5686 5685 5683 5681 5679 5678 5676 5675 5673 5672 5671 5670 5669 5668 5667 5666 5664 5663 5662 5660 5659 5658 5657 5656 5655
5695 5695 5694 5694 5693 5692 5692 5690 5689 5688 5687 5685 5683 5682 5681 5679 5678 5676 5675 5673 5672 5670 5669 5667 5666 5665 5664 5663 5662 5661 5660 5659 5658 5657 5656 5655 5654 5652 5651 5650 5649 5648 5647
5684 5683 5683 5682 5682 5681 5680 5679 5677 5676 5675 5673 5672 5671 5669 5668 5666 5665 5664 5663 5661 5660 5658 5657 5656 5655 5655 5654 5653 5652 5652 5651 5650 5649 5648 5647 5646 5644 5643 5642 5641 5640 5639
5672 5672 5671 5671 5670 5669 5668 5667 5666 5665 5664 5662 5661 5660 5658 5657 5655 5654 5653 5652 5651 5650 5649 5648 5647 5646 5646 5645 5644 5644 5643 5642 5642 5641 5639 5638 5637 5636 5635 5633 5632 5631 5630
5661 5661 5660 5660 5659 5658 5657 5656 5655 5654 5653 5651 5650 5649 5648 5646 5645 5644 5643 5642 5641 5640 5639 5638 5638 5637 5637 5636 5635 5635 5634 5633 5633 5632 5631 5629 5628 5627 5626 5624 5623 5622 5621
5650 5650 5649 5649 5648 5647 5646 5645 5644 5643 5642 5641 5639 5638 5637 5636 5635 5634 5633 5632 5631 5630 5630 5629 5629 5628 5628 5627 5626 5626 5625 5624 5623 5622 5621 5620 5619 5617 5616 5615 5613 5612 5611
5639 5639 5638 5638 5637 5636 5635 5634 5633 5632 5631 5630 5629 5628 5627 5626 5625 5624 5623 5622 5622 5621 5620 5620 5619 5619 5618 5618 5617 5617 5616 5615 5614 5613 5612 5610 5609 5608 5606 5605 5603 5602 5600
5629 5628 5628 5627 5626 5626 5625 5624 5623 5622 5621 5620 5619 5618 5617 5616 5615 5614 5614 5613 5612 5612 5611 5611 5611 5610 5610 5609 5608 5608 5607 5606 5604 5603 5602 5600 5599 5597 5596 5594 5593 5591 5589